Barnwell, SC

3:06 AM EST on November 19, 2019 (GMT -0500)
Barnwell County

Weather History for KBNL - September, 2019

Change the Weather History Date:

Sunday, September 15, 2019

  Actual Average (KOGB) Record (KOGB)
Temperature  
Mean Temperature 82 °F 75 °F  
Max Temperature 93 °F 86 °F 98 °F (1956)
Min Temperature 71 °F 65 °F 45 °F (1985)
Degree Days  
Heating Degree Days 0 0  
Month to date heating degree days 0  
Since 1 July heating degree days 0  
Cooling Degree Days 17 10  
Month to date cooling degree days 177  
Year to date cooling degree days 1870  
Growing Degree Days 32 (Base 50)    
Moisture  
Dew Point 69 °F    
Average Humidity 72    
Maximum Humidity 100    
Minimum Humidity 43    
Precipitation  
Precipitation 0.00 in 0.12 in 2.86 in (1963)
Month to date precipitation 1.93  
Year to date precipitation 35.24  
Sea Level Pressure  
Sea Level Pressure 30.09 in    
Wind  
Wind Speed 4 mph (NE)    
Max Wind Speed 13 mph    
Max Gust Speed 21 mph    
T = Trace of Precipitation, MM = Missing Value Source: NWS Daily Summary

Daily Weather History Graph

Daily Weather History Graph

Search for Another Location

Airport or City:

Astronomy

Sep. 15, 2019 Rise Set
Actual Time 7:08 AM EDT 7:32 PM EDT
Civil Twilight 6:44 AM EDT 7:57 PM EDT
Nautical Twilight 6:14 AM EDT 8:26 PM EDT
Astronomical Twilight 5:45 AM EDT 8:55 PM EDT
Moon 8:42 PM EDT (9/15) 8:16 AM EDT (9/15)
Length of Visible Light 13h 12m
Length of Day
12h 23m
Full, 98% of the Moon is Illuminated
Sep 15
Full
Sep 21
Last Quarter
Sep 28
New
Oct 5
First Quarter
Oct 13
Full

Hourly Weather History & Observations

Time (EDT) Temp. Heat Index Dew Point Humidity Pressure Visibility Wind Dir Wind Speed Gust Speed Precip Events Conditions
12:15 AM 73.4 °F - 71.6 °F 94% 30.14 in - Calm Calm - N/A   Unknown
12:35 AM 73.4 °F - 69.8 °F 88% 30.15 in - Calm Calm - N/A   Unknown
12:55 AM 73.4 °F - 71.6 °F 94% 30.14 in - Calm Calm - N/A   Unknown
1:15 AM 73.4 °F - 71.6 °F 94% 30.14 in - Calm Calm - N/A   Unknown
1:35 AM 71.6 °F - 69.8 °F 94% 30.13 in - Calm Calm - N/A   Unknown
1:55 AM 71.6 °F - 69.8 °F 94% 30.13 in - Calm Calm - N/A   Unknown
2:15 AM 73.4 °F - 71.6 °F 94% 30.13 in - Calm Calm - N/A   Unknown
2:35 AM 71.6 °F - 69.8 °F 94% 30.13 in - Calm Calm - N/A   Unknown
2:55 AM 71.6 °F - 69.8 °F 94% 30.12 in - NNE 3.5 mph - N/A   Unknown
3:15 AM 71.6 °F - 69.8 °F 94% 30.12 in - Calm Calm - N/A   Unknown
3:35 AM 71.6 °F - 69.8 °F 94% 30.12 in - North 3.5 mph - N/A   Unknown
3:55 AM 71.6 °F - 69.8 °F 94% 30.11 in - North 5.8 mph - N/A   Unknown
4:15 AM 71.6 °F - 69.8 °F 94% 30.11 in - North 4.6 mph - N/A   Unknown
4:35 AM 71.6 °F - 71.6 °F 100% 30.11 in - NNE 5.8 mph - N/A   Unknown
4:55 AM 71.6 °F - 69.8 °F 94% 30.10 in - NNE 4.6 mph - N/A   Unknown
5:15 AM 71.6 °F - 69.8 °F 94% 30.11 in - NNE 5.8 mph - N/A   Unknown
5:55 AM 71.6 °F - 69.8 °F 94% 30.11 in - Calm Calm - N/A   Unknown
6:15 AM 71.6 °F - 69.8 °F 94% 30.11 in - NNE 4.6 mph - N/A   Unknown
6:35 AM 71.6 °F - 69.8 °F 94% 30.12 in - NNE 5.8 mph - N/A   Unknown
6:55 AM 71.6 °F - 69.8 °F 94% 30.12 in - North 5.8 mph - N/A   Unknown
7:15 AM 71.6 °F - 69.8 °F 94% 30.12 in - NE 4.6 mph - N/A   Unknown
7:35 AM 71.6 °F - 69.8 °F 94% 30.13 in - Calm Calm - N/A   Unknown
7:55 AM 71.6 °F - 69.8 °F 94% 30.13 in - Calm Calm - N/A   Unknown
8:15 AM 71.6 °F - 69.8 °F 94% 30.13 in - NNE 6.9 mph - N/A   Unknown
8:35 AM 73.4 °F - 71.6 °F 94% 30.14 in - NNE 6.9 mph - N/A   Unknown
8:55 AM 75.2 °F - 71.6 °F 89% 30.14 in - NE 4.6 mph - N/A   Clear
9:15 AM 77.0 °F - 71.6 °F 83% 30.15 in - NE 5.8 mph - N/A   Clear
9:35 AM 78.8 °F - 71.6 °F 78% 30.14 in - NE 6.9 mph - N/A   Clear
9:55 AM 80.6 °F 84.6 °F 71.6 °F 74% 30.14 in - ENE 9.2 mph - N/A   Clear
10:15 AM 82.4 °F 87.2 °F 71.6 °F 70% 30.14 in - ENE 10.4 mph - N/A   Clear
10:35 AM 82.4 °F 87.2 °F 71.6 °F 70% 30.13 in - ENE 8.1 mph 15.0 mph N/A   Clear
10:55 AM 84.2 °F 89.6 °F 71.6 °F 66% 30.13 in - NE 10.4 mph - N/A   Clear
11:15 AM 86.0 °F 91.8 °F 71.6 °F 62% 30.12 in - ENE 8.1 mph - N/A   Clear
11:35 AM 86.0 °F 90.4 °F 69.8 °F 58% 30.11 in - ENE 10.4 mph 17.3 mph N/A   Partly Cloudy
11:55 AM 86.0 °F 90.4 °F 69.8 °F 58% 30.11 in - ENE 12.7 mph 19.6 mph N/A   Partly Cloudy
12:15 PM 86.0 °F 90.4 °F 69.8 °F 58% 30.11 in - NE 11.5 mph 18.4 mph N/A   Partly Cloudy
12:35 PM 87.8 °F 92.6 °F 69.8 °F 55% 30.10 in - NE 8.1 mph 13.8 mph N/A   Scattered Clouds
12:55 PM 86.0 °F 90.4 °F 69.8 °F 58% 30.10 in - NNE 8.1 mph 13.8 mph N/A   Scattered Clouds
1:15 PM 89.6 °F 94.7 °F 69.8 °F 52% 30.09 in - NNE 9.2 mph 15.0 mph N/A   Scattered Clouds
1:35 PM 87.8 °F 91.4 °F 68.0 °F 52% 30.08 in - NE 10.4 mph - N/A   Scattered Clouds
1:55 PM 89.6 °F 93.4 °F 68.0 °F 49% 30.08 in - NE 10.4 mph 17.3 mph N/A   Clear
2:15 PM 89.6 °F 93.4 °F 68.0 °F 49% 30.07 in - NNE 9.2 mph 18.4 mph N/A   Partly Cloudy
2:35 PM 89.6 °F 93.4 °F 68.0 °F 49% 30.06 in - NE 8.1 mph 16.1 mph N/A   Scattered Clouds
2:55 PM 91.4 °F 95.4 °F 68.0 °F 46% 30.05 in - NE 12.7 mph 20.7 mph N/A   Partly Cloudy
3:15 PM 91.4 °F 95.4 °F 68.0 °F 46% 30.05 in - ENE 10.4 mph - N/A   Partly Cloudy
3:35 PM 91.4 °F 95.4 °F 68.0 °F 46% 30.04 in - NNE 10.4 mph - N/A   Scattered Clouds
3:55 PM 91.4 °F 94.0 °F 66.2 °F 43% 30.03 in - ENE 10.4 mph - N/A   Clear
4:15 PM 91.4 °F 95.4 °F 68.0 °F 46% 30.02 in - NNE 9.2 mph 15.0 mph N/A   Scattered Clouds
4:35 PM 91.4 °F 94.0 °F 66.2 °F 43% 30.02 in - NNE 9.2 mph - N/A   Partly Cloudy
4:55 PM 93.2 °F 97.7 °F 68.0 °F 44% 30.02 in - East 11.5 mph - N/A   Scattered Clouds
5:15 PM 91.4 °F 94.0 °F 66.2 °F 43% 30.02 in - ENE 9.2 mph - N/A   Scattered Clouds
5:35 PM 91.4 °F 94.0 °F 66.2 °F 43% 30.02 in - ENE 9.2 mph - N/A   Partly Cloudy
5:55 PM 91.4 °F 94.0 °F 66.2 °F 43% 30.02 in - NE 9.2 mph - N/A   Clear
6:35 PM 89.6 °F 92.2 °F 66.2 °F 46% 30.02 in - ENE 9.2 mph - N/A   Clear
6:55 PM 87.8 °F 91.4 °F 68.0 °F 52% 30.02 in - ENE 6.9 mph - N/A   Clear
7:15 PM 87.8 °F 90.4 °F 66.2 °F 49% 30.02 in - ENE 8.1 mph - N/A   Clear
7:35 PM 86.0 °F 89.4 °F 68.0 °F 55% 30.02 in - NE 4.6 mph - N/A   Clear
7:55 PM 84.2 °F 87.3 °F 68.0 °F 58% 30.03 in - Calm Calm - N/A   Clear
8:15 PM 82.4 °F 85.4 °F 68.0 °F 62% 30.02 in - NE 4.6 mph - N/A   Clear
8:35 PM 82.4 °F 85.4 °F 68.0 °F 62% 30.03 in - NE 3.5 mph - N/A   Clear
8:55 PM 80.6 °F 83.2 °F 68.0 °F 65% 30.03 in - NE 3.5 mph - N/A   Clear
9:15 PM 80.6 °F 83.2 °F 68.0 °F 65% 30.03 in - ENE 3.5 mph - N/A   Clear
9:55 PM 78.8 °F - 69.8 °F 74% 30.04 in - Calm Calm - N/A   Scattered Clouds
10:35 PM 77.0 °F - 69.8 °F 78% 30.05 in - Calm Calm - N/A   Partly Cloudy
10:55 PM 75.2 °F - 69.8 °F 83% 30.05 in - Calm Calm - N/A   Partly Cloudy
11:55 PM 73.4 °F - 69.8 °F 88% 30.05 in - Calm Calm - N/A   Clear